Regional Weather Roundup
Issued by NWS Kansas City/Pleasant Hill, MO

Home | Current Version | Previous Version | Text Only | Print | Product List | Glossary On
Versions: 1 2 3 4 5 6 7 8 9 10 11 12 13 14 15 16 17 18 19 20 21 22 23 24 25 26 27 28 29 30 31 32 33 34 35 36 37 38 39 40 41 42 43 44 45 46 47 48 49 50
000
ASUS43 KEAX 120110
RWREAX

WEATHER ROUNDUP FOR EASTERN KANSAS AND NORTHWEST MISSOURI
NATIONAL WEATHER SERVICE KANSAS CITY/PLEASANT HILL MO
700 PM CST THU FEB 11 2016

KSZ040-057-103>105-MOZ028-029-037-043-120200-
...KANSAS CITY METROPOLITAN AREA...

CITY           SKY/WX    TMP DP  RH WIND       PRES   REMARKS
K.C. INTL      CLOUDY    33  21  61 E5        30.19S WCI  29
K.C. DOWNTOWN  CLOUDY    36  21  54 SE9       30.18F WCI  29
LEES SUMMIT    CLOUDY    34  20  56 SE6       30.18F WCI  29
OLATHE - IXD   CLOUDY    32  22  66 SE6       30.19F WCI  26
OLATHE - OJC   CLOUDY    32  21  64 S6        30.18F WCI  26
LAWRENCE       CLEAR     31  21  66 SE6       30.19S WCI  25

$$

MOZ001>008-011>017-020>025-030>033-038>040-044>046-053-054-120200-
...NORTHERN AND CENTRAL MISSOURI...

CITY           SKY/WX    TMP DP  RH WIND       PRES   REMARKS
ST. JOSEPH     CLOUDY    33  21  61 CALM      30.23R
MOSBY          CLOUDY    32  21  64 E6        30.19F WCI  26
WARRENSBURG    MOCLDY    32  21  64 E6        30.20F WCI  26
WHITEMAN AFB   MOCLDY    33  20  56 E1        30.20S
CLINTON          N/A     36  23  60 NE3       30.21S
SEDALIA        CLOUDY    34  20  56 E5        30.23R WCI  30
WARSAW         NOT AVBL
CHILLICOTHE      N/A     29  16  58 E6        30.25R WCI  23
KIRKSVILLE     CLOUDY    24  11  57 E3        30.27S

$$

MOZ041-047>049-056>058-063>065-088>090-097-120200-
...EASTERN AND SOUTHERN MISSOURI...

CITY           SKY/WX    TMP DP  RH WIND       PRES   REMARKS
ST. LOUIS INTL CLOUDY    28   9  44 NE5       30.31R WCI  23
SPIRIT OF STL  CLOUDY    29  12  49 NE7       30.29R WCI  22
COLUMBIA       CLOUDY    30  19  63 E9        30.23R WCI  22
JEFFERSON CITY CLOUDY    33  19  56 E8        30.24F WCI  26
ROLLA          CLOUDY    32  21  64 NE7       30.21R WCI  26
OSAGE BEACH    CLOUDY    36  19  51 E6        30.22S WCI  31
SPRINGFIELD    CLOUDY    43  19  38 NE7       30.15S
BRANSON        MOCLDY    41  19  42 SE8       30.15S
JOPLIN         PTCLDY    41  23  48 NE3       30.18R
WEST PLAINS    PTCLDY    41  18  39 SE6       30.18F

$$

IAZ060-094-KSZ022-034>040-054-083-096-NEZ052-066-093-120200-
...KANSAS...SOUTHEAST NEBRASKA AND IOWA...

CITY           SKY/WX    TMP DP  RH WIND       PRES   REMARKS
TOPEKA         PTCLDY    39  22  50 S3        30.19R
MANHATTAN      PTCLDY    34  25  69 CALM      30.16R
EMPORIA        PTCLDY    35  23  61 E7        30.16R WCI  29
CHANUTE        PTCLDY    37  24  59 SE6       30.16F WCI  32
WICHITA        PTCLDY    41  26  55 S3        30.14S
OMAHA          CLOUDY    26  20  77 N5        30.20R WCI  20
LINCOLN        CLOUDY    29  24  82 S5        30.19R WCI  24
FALLS CITY     CLOUDY    33  22  63 SE6       30.18S WCI  28
LAMONI         CLOUDY    26  12  55 E6        30.21F WCI  19
DES MOINES     LGT SNOW  19  12  74 E5        30.27R WCI  12

$$




USA.gov is the U.S. government's official web portal to all federal, state and local government web resources and services.